BVL7439 LBWN-LIBD

Flight info

Callsign BVL7439
Flight time 1h 27m
Altitude 36000
Route DICXA DCT GOL DCT BLO DCT WAK DCT VELBA DCT DOBAR DCT PAPIZ DCT ABADI DCT ENOXA
Aircraft A320/M-SDE3FGHIRWY/LB1

Departure

Time 2026-04-22 13:14
Airport Varna Airport (LBWN)

Arrival

Time 2026-04-22 14:41
Airport Bari Karol Wojtyła International Airport (LIBD)
Time Latitude Longitude Altitude Speed Heading
2026-04-22 12:52 43.23512 27.82556 239 ft 0 kts
2026-04-22 13:08 43.23513 27.82556 239 ft 0 kts
2026-04-22 13:08 43.23523 27.82558 239 ft 2 kts
2026-04-22 13:08 43.23546 27.82571 240 ft 4 kts 44°
2026-04-22 13:09 43.23556 27.82623 241 ft 6 kts 92°
2026-04-22 13:09 43.23550 27.82696 242 ft 8 kts 97°
2026-04-22 13:09 43.23541 27.82790 244 ft 10 kts 96°
2026-04-22 13:09 43.23539 27.82895 246 ft 11 kts 86°
2026-04-22 13:10 43.23553 27.83010 248 ft 12 kts 91°
2026-04-22 13:10 43.23537 27.83137 249 ft 14 kts 133°
2026-04-22 13:10 43.23449 27.83233 247 ft 18 kts 142°
2026-04-22 13:10 43.23352 27.83313 246 ft 13 kts 175°
2026-04-22 13:11 43.23250 27.83299 243 ft 8 kts 187°
2026-04-22 13:11 43.23226 27.83295 242 ft 0 kts 187°
2026-04-22 13:12 43.23211 27.83293 242 ft 4 kts 186°
2026-04-22 13:13 43.23169 27.83285 242 ft 7 kts 194°
2026-04-22 13:13 43.23134 27.83218 242 ft 11 kts 269°
2026-04-22 13:13 43.23140 27.83127 242 ft 7 kts 276°
2026-04-22 13:13 43.23140 27.83117 241 ft 0 kts 277°
2026-04-22 13:14 43.23169 27.82773 239 ft 78 kts 276°
2026-04-22 13:14 43.23267 27.81696 223 ft 148 kts 277°
2026-04-22 13:14 43.23424 27.80132 582 ft 173 kts 277°
2026-04-22 13:14 43.23571 27.78525 1371 ft 173 kts 276°
2026-04-22 13:15 43.23573 27.76898 2159 ft 176 kts 258°
2026-04-22 13:15 43.23206 27.75239 2804 ft 191 kts 250°
2026-04-22 13:15 43.22723 27.73481 3374 ft 205 kts 250°
2026-04-22 13:15 43.22227 27.71596 3825 ft 222 kts 253°
2026-04-22 13:16 43.21778 27.69428 4227 ft 246 kts 256°
2026-04-22 13:16 43.21341 27.67105 4765 ft 263 kts 256°
2026-04-22 13:16 43.20878 27.64643 5513 ft 271 kts 257°
2026-04-22 13:16 43.20399 27.62141 6424 ft 274 kts 257°
2026-04-22 13:17 43.19912 27.59617 7334 ft 276 kts 257°
2026-04-22 13:17 43.19426 27.57101 8262 ft 277 kts 257°
2026-04-22 13:17 43.18936 27.54584 9139 ft 278 kts 257°
2026-04-22 13:17 43.18440 27.52046 9983 ft 279 kts 258°
2026-04-22 13:18 43.17940 27.49488 10732 ft 286 kts 258°
2026-04-22 13:18 43.17407 27.46762 11148 ft 303 kts 257°
2026-04-22 13:18 43.16853 27.43936 11487 ft 320 kts 257°
2026-04-22 13:18 43.16258 27.40918 11850 ft 337 kts 257°
2026-04-22 13:19 43.15637 27.37775 12477 ft 344 kts 257°
2026-04-22 13:19 43.15011 27.34618 13244 ft 346 kts 256°
2026-04-22 13:19 43.14378 27.31430 14018 ft 348 kts 256°
2026-04-22 13:19 43.13746 27.28248 14722 ft 350 kts 256°
2026-04-22 13:20 43.13107 27.25034 15423 ft 352 kts 256°
2026-04-22 13:20 43.12463 27.21805 16121 ft 354 kts 256°
2026-04-22 13:20 43.11815 27.18550 16795 ft 356 kts 256°
2026-04-22 13:20 43.11164 27.15287 17434 ft 359 kts 256°
2026-04-22 13:21 43.10511 27.12026 18067 ft 362 kts 256°
2026-04-22 13:21 43.09847 27.08716 18708 ft 363 kts 256°
2026-04-22 13:21 43.09174 27.05368 19359 ft 365 kts 256°
2026-04-22 13:21 43.08501 27.02026 19955 ft 367 kts 256°
2026-04-22 13:22 43.07822 26.98652 20539 ft 369 kts 256°
2026-04-22 13:22 43.07142 26.95283 21079 ft 372 kts 256°
2026-04-22 13:22 43.06454 26.91881 21623 ft 374 kts 256°
2026-04-22 13:22 43.05767 26.88494 22172 ft 376 kts 256°
2026-04-22 13:23 43.05061 26.85012 22689 ft 378 kts 256°
2026-04-22 13:23 43.04362 26.81572 23183 ft 381 kts 256°
2026-04-22 13:23 43.03659 26.78117 23694 ft 382 kts 256°
2026-04-22 13:23 43.02938 26.74586 24191 ft 384 kts 257°
2026-04-22 13:24 43.02219 26.71072 24622 ft 386 kts 257°
2026-04-22 13:24 43.01497 26.67540 25036 ft 388 kts 256°
2026-04-22 13:24 43.00773 26.64005 25456 ft 390 kts 257°
2026-04-22 13:24 43.00043 26.60456 25867 ft 391 kts 257°
2026-04-22 13:25 42.99305 26.56869 26221 ft 394 kts 257°
2026-04-22 13:25 42.98570 26.53298 26575 ft 396 kts 257°
2026-04-22 13:25 42.97823 26.49683 26953 ft 397 kts 257°
2026-04-22 13:25 42.97070 26.46043 27304 ft 398 kts 257°
2026-04-22 13:26 42.96323 26.42434 27611 ft 400 kts 257°
2026-04-22 13:26 42.95565 26.38783 27919 ft 402 kts 257°
2026-04-22 13:26 42.94801 26.35109 28234 ft 403 kts 257°
2026-04-22 13:26 42.94036 26.31429 28544 ft 404 kts 256°
2026-04-22 13:27 42.93274 26.27764 28858 ft 405 kts 256°
2026-04-22 13:27 42.92506 26.24080 29171 ft 405 kts 256°
2026-04-22 13:27 42.91739 26.20412 29546 ft 404 kts 256°
2026-04-22 13:27 42.90969 26.16743 29973 ft 401 kts 256°
2026-04-22 13:28 42.90206 26.13112 30370 ft 399 kts 257°
2026-04-22 13:28 42.89443 26.09515 30738 ft 398 kts 256°
2026-04-22 13:28 42.88670 26.05924 31066 ft 396 kts 256°
2026-04-22 13:28 42.87901 26.02335 31338 ft 397 kts 256°
2026-04-22 13:29 42.87123 25.98703 31627 ft 396 kts 257°
2026-04-22 13:29 42.86360 25.95124 31890 ft 395 kts 257°
2026-04-22 13:29 42.85603 25.91571 32097 ft 395 kts 256°
2026-04-22 13:29 42.84830 25.87944 32304 ft 396 kts 257°
2026-04-22 13:30 42.84074 25.84403 32545 ft 395 kts 256°
2026-04-22 13:30 42.83302 25.80794 32784 ft 394 kts 257°
2026-04-22 13:30 42.82545 25.77254 32975 ft 394 kts 256°
2026-04-22 13:30 42.81777 25.73675 33162 ft 394 kts 256°
2026-04-22 13:31 42.81013 25.70114 33353 ft 394 kts 257°
2026-04-22 13:31 42.80242 25.66533 33527 ft 394 kts 257°
2026-04-22 13:31 42.79474 25.62963 33707 ft 394 kts 257°
2026-04-22 13:31 42.78708 25.59416 33880 ft 394 kts 257°
2026-04-22 13:32 42.77940 25.55858 34037 ft 394 kts 257°
2026-04-22 13:32 42.77163 25.52268 34212 ft 394 kts 257°
2026-04-22 13:32 42.76396 25.48722 34374 ft 394 kts 257°
2026-04-22 13:32 42.75620 25.45149 34499 ft 395 kts 257°
2026-04-22 13:33 42.74836 25.41542 34598 ft 397 kts 257°
2026-04-22 13:33 42.74062 25.37985 34723 ft 398 kts 257°
2026-04-22 13:33 42.73272 25.34366 34845 ft 398 kts 256°
2026-04-22 13:34 42.71692 25.27125 35058 ft 402 kts 256°
2026-04-22 13:34 42.70898 25.23496 35193 ft 402 kts 256°
2026-04-22 13:34 42.70096 25.19833 35318 ft 403 kts 256°
2026-04-22 13:34 42.69294 25.16185 35420 ft 404 kts 256°
2026-04-22 13:35 42.68490 25.12533 35514 ft 405 kts 256°
2026-04-22 13:35 42.66876 25.05225 35714 ft 406 kts 256°
2026-04-22 13:35 42.66057 25.01527 35816 ft 407 kts 256°
2026-04-22 13:36 42.65249 24.97883 35915 ft 407 kts 256°
2026-04-22 13:36 42.63598 24.90466 35963 ft 409 kts 256°
2026-04-22 13:37 42.61954 24.83104 35977 ft 408 kts 256°
2026-04-22 13:37 42.60305 24.75742 35983 ft 408 kts 256°
2026-04-22 13:38 42.58660 24.68415 35995 ft 408 kts 256°
2026-04-22 13:38 42.56181 24.57420 36006 ft 407 kts 256°
2026-04-22 13:39 42.54525 24.50107 36017 ft 407 kts 256°
2026-04-22 13:39 42.52858 24.42778 36010 ft 407 kts 256°
2026-04-22 13:40 42.51186 24.35452 35999 ft 407 kts 256°
2026-04-22 13:40 42.49512 24.28122 36019 ft 407 kts 256°
2026-04-22 13:41 42.47853 24.20876 36006 ft 406 kts 256°
2026-04-22 13:41 42.46172 24.13571 36004 ft 407 kts 256°
2026-04-22 13:42 42.44488 24.06288 36022 ft 406 kts 256°
2026-04-22 13:42 42.42799 23.99001 36034 ft 405 kts 256°
2026-04-22 13:43 42.41115 23.91766 36021 ft 405 kts 256°
2026-04-22 13:43 42.39418 23.84497 36019 ft 406 kts 256°
2026-04-22 13:44 42.37715 23.77219 36000 ft 407 kts 256°
2026-04-22 13:44 42.36013 23.69975 35988 ft 406 kts 256°
2026-04-22 13:45 42.34310 23.62745 35983 ft 406 kts 256°
2026-04-22 13:45 42.32589 23.55463 35983 ft 406 kts 256°
2026-04-22 13:46 42.30870 23.48220 35971 ft 406 kts 256°
2026-04-22 13:46 42.29146 23.40968 35976 ft 406 kts 256°
2026-04-22 13:47 42.27426 23.33761 35961 ft 405 kts 255°
2026-04-22 13:47 42.25699 23.26524 35941 ft 406 kts 256°
2026-04-22 13:48 42.23964 23.19291 35941 ft 405 kts 256°
2026-04-22 13:48 42.22219 23.12044 35955 ft 405 kts 256°
2026-04-22 13:49 42.20479 23.04845 35960 ft 405 kts 256°
2026-04-22 13:49 42.18729 22.97627 35986 ft 406 kts 256°
2026-04-22 13:50 42.16971 22.90395 35994 ft 405 kts 256°
2026-04-22 13:50 42.15216 22.83203 35992 ft 405 kts 256°
2026-04-22 13:51 42.13466 22.76055 35984 ft 404 kts 256°
2026-04-22 13:51 42.11702 22.68869 35992 ft 403 kts 256°
2026-04-22 13:52 42.09952 22.61719 35973 ft 402 kts 257°
2026-04-22 13:52 42.08472 22.54450 35973 ft 402 kts 259°
2026-04-22 13:53 42.07053 22.47244 35974 ft 401 kts 259°
2026-04-22 13:53 42.05628 22.40018 35963 ft 400 kts 259°
2026-04-22 13:54 42.04194 22.32777 35956 ft 400 kts 259°
2026-04-22 13:54 42.02760 22.25530 35974 ft 400 kts 259°
2026-04-22 13:55 42.01330 22.18336 35977 ft 399 kts 259°
2026-04-22 13:55 41.99892 22.11133 35964 ft 400 kts 259°
2026-04-22 13:56 41.98445 22.03920 35995 ft 399 kts 259°
2026-04-22 13:56 41.97003 21.96756 36001 ft 397 kts 259°
2026-04-22 13:57 41.95557 21.89595 36017 ft 397 kts 259°
2026-04-22 13:57 41.94113 21.82468 36018 ft 397 kts 259°
2026-04-22 13:58 41.92680 21.75417 36013 ft 396 kts 259°
2026-04-22 13:58 41.91222 21.68273 36014 ft 397 kts 259°
2026-04-22 13:59 41.89764 21.61156 36035 ft 398 kts 259°
2026-04-22 13:59 41.88263 21.53998 36043 ft 398 kts 259°
2026-04-22 14:00 41.86777 21.46867 36032 ft 398 kts 259°
2026-04-22 14:00 41.85301 21.39761 36027 ft 397 kts 259°
2026-04-22 14:01 41.83810 21.32602 36021 ft 397 kts 259°
2026-04-22 14:01 41.83205 21.29693 35998 ft 398 kts 259°
2026-04-22 14:02 41.80953 21.18883 36009 ft 399 kts 259°
2026-04-22 14:02 41.79451 21.11715 35988 ft 398 kts 259°
2026-04-22 14:03 41.77957 21.04615 35995 ft 398 kts 259°
2026-04-22 14:03 41.76449 20.97468 35987 ft 399 kts 259°
2026-04-22 14:04 41.74952 20.90396 35983 ft 398 kts 259°
2026-04-22 14:04 41.73436 20.83248 35977 ft 398 kts 259°
2026-04-22 14:05 41.71925 20.76156 35980 ft 398 kts 259°
2026-04-22 14:06 41.69655 20.65550 35973 ft 396 kts 259°
2026-04-22 14:06 41.67960 20.58516 35968 ft 399 kts 255°
2026-04-22 14:07 41.65734 20.51628 35958 ft 403 kts 251°
2026-04-22 14:07 41.63032 20.45081 35973 ft 408 kts 245°
2026-04-22 14:08 41.59960 20.38666 35988 ft 407 kts 245°
2026-04-22 14:08 41.56918 20.32348 35990 ft 409 kts 244°
2026-04-22 14:09 41.53848 20.25963 35973 ft 409 kts 244°
2026-04-22 14:09 41.50767 20.19591 35695 ft 408 kts 244°
2026-04-22 14:09 41.49232 20.16428 35831 ft 407 kts 244°
2026-04-22 14:10 41.47691 20.13258 35907 ft 409 kts 245°
2026-04-22 14:10 41.44578 20.06859 35950 ft 409 kts 245°
2026-04-22 14:11 41.41492 20.00535 35974 ft 410 kts 245°
2026-04-22 14:11 41.38364 19.94140 36002 ft 410 kts 244°
2026-04-22 14:12 41.35254 19.87796 35990 ft 409 kts 244°
2026-04-22 14:12 41.32130 19.81439 36037 ft 410 kts 245°
2026-04-22 14:13 41.29030 19.75135 36031 ft 410 kts 245°
2026-04-22 14:13 41.25906 19.68800 35994 ft 411 kts 245°
2026-04-22 14:14 41.22797 19.62506 35992 ft 409 kts 245°
2026-04-22 14:14 41.19679 19.56215 35989 ft 409 kts 245°
2026-04-22 14:15 41.16558 19.49920 35985 ft 409 kts 245°
2026-04-22 14:15 41.13433 19.43639 35971 ft 409 kts 245°
2026-04-22 14:16 41.10283 19.37313 35967 ft 409 kts 245°
2026-04-22 14:16 41.07149 19.31027 35970 ft 409 kts 245°
2026-04-22 14:17 41.04015 19.24745 35963 ft 409 kts 245°
2026-04-22 14:17 41.00875 19.18471 35969 ft 411 kts 244°
2026-04-22 14:18 40.97712 19.12177 35984 ft 413 kts 244°
2026-04-22 14:18 40.94572 19.05885 35981 ft 408 kts 247°
2026-04-22 14:19 40.92337 18.99104 35991 ft 395 kts 260°
2026-04-22 14:19 40.91462 18.92088 35988 ft 384 kts 272°
2026-04-22 14:20 40.92494 18.81760 36003 ft 378 kts 288°
2026-04-22 14:20 40.94044 18.75136 35977 ft 376 kts 288°
2026-04-22 14:21 40.95584 18.68636 35206 ft 370 kts 289°
2026-04-22 14:21 40.96360 18.65363 34421 ft 374 kts 290°
2026-04-22 14:22 40.97928 18.58802 32614 ft 381 kts 290°
2026-04-22 14:22 40.98729 18.55466 31762 ft 381 kts 290°
2026-04-22 14:22 41.00299 18.48853 30072 ft 379 kts 290°
2026-04-22 14:23 41.01096 18.45523 29037 ft 381 kts 289°
2026-04-22 14:23 41.01887 18.42199 27818 ft 388 kts 289°
2026-04-22 14:23 41.02699 18.38792 26519 ft 394 kts 288°
2026-04-22 14:23 41.03513 18.35356 25755 ft 388 kts 288°
2026-04-22 14:24 41.04307 18.31966 24972 ft 386 kts 287°
2026-04-22 14:24 41.05097 18.28601 23765 ft 394 kts 287°
2026-04-22 14:24 41.05920 18.25106 22534 ft 400 kts 286°
2026-04-22 14:24 41.06734 18.21643 21629 ft 399 kts 286°
2026-04-22 14:25 41.07552 18.18137 20843 ft 395 kts 286°
2026-04-22 14:25 41.08361 18.14682 20051 ft 392 kts 285°
2026-04-22 14:25 41.09157 18.11285 19264 ft 389 kts 285°
2026-04-22 14:25 41.09957 18.07863 18499 ft 386 kts 285°
2026-04-22 14:26 41.10738 18.04516 17715 ft 384 kts 285°
2026-04-22 14:26 41.11519 18.01153 16929 ft 382 kts 285°
2026-04-22 14:26 41.12299 17.97790 16130 ft 381 kts 285°
2026-04-22 14:26 41.13072 17.94452 15324 ft 380 kts 286°
2026-04-22 14:27 41.13849 17.91103 14547 ft 379 kts 286°
2026-04-22 14:27 41.14611 17.87802 13788 ft 377 kts 287°
2026-04-22 14:27 41.15371 17.84508 13052 ft 375 kts 287°
2026-04-22 14:27 41.16127 17.81229 12485 ft 369 kts 287°
2026-04-22 14:28 41.16864 17.78026 11941 ft 361 kts 288°
2026-04-22 14:28 41.17581 17.74915 11219 ft 345 kts 288°
2026-04-22 14:28 41.18266 17.71934 10640 ft 337 kts 289°
2026-04-22 14:28 41.18930 17.69048 10369 ft 312 kts 289°
2026-04-22 14:29 41.19529 17.66431 10252 ft 283 kts 290°
2026-04-22 14:29 41.20078 17.64035 10164 ft 264 kts 290°
2026-04-22 14:29 41.20605 17.61743 10092 ft 258 kts 290°
2026-04-22 14:29 41.21131 17.59464 9977 ft 257 kts 290°
2026-04-22 14:30 41.21651 17.57202 9708 ft 252 kts 290°
2026-04-22 14:30 41.22152 17.55011 9405 ft 249 kts 290°
2026-04-22 14:30 41.22655 17.52808 9096 ft 247 kts 290°
2026-04-22 14:30 41.23145 17.50664 8784 ft 245 kts 290°
2026-04-22 14:31 41.23638 17.48506 8458 ft 243 kts 291°
2026-04-22 14:31 41.24128 17.46353 8169 ft 242 kts 290°
2026-04-22 14:31 41.24613 17.44215 7880 ft 242 kts 291°
2026-04-22 14:31 41.25094 17.42098 7580 ft 242 kts 291°
2026-04-22 14:32 41.25579 17.39961 7291 ft 241 kts 291°
2026-04-22 14:32 41.26055 17.37850 7071 ft 235 kts 291°
2026-04-22 14:32 41.26506 17.35841 7022 ft 219 kts 291°
2026-04-22 14:32 41.26941 17.33911 6985 ft 212 kts 291°
2026-04-22 14:33 41.27355 17.32071 6948 ft 208 kts 291°
2026-04-22 14:33 41.27675 17.30164 6772 ft 213 kts 275°
2026-04-22 14:33 41.27424 17.28215 6555 ft 218 kts 256°
2026-04-22 14:33 41.26904 17.26332 6299 ft 220 kts 254°
2026-04-22 14:34 41.26343 17.24402 6053 ft 230 kts 254°
2026-04-22 14:34 41.25765 17.22375 5788 ft 234 kts 254°
2026-04-22 14:34 41.25192 17.20356 5545 ft 234 kts 255°
2026-04-22 14:34 41.24628 17.18350 5298 ft 233 kts 255°
2026-04-22 14:35 41.24064 17.16329 5048 ft 233 kts 255°
2026-04-22 14:35 41.23500 17.14305 4801 ft 232 kts 255°
2026-04-22 14:35 41.22948 17.12325 4559 ft 231 kts 255°
2026-04-22 14:35 41.22391 17.10331 4318 ft 227 kts 255°
2026-04-22 14:36 41.21849 17.08391 4083 ft 224 kts 255°
2026-04-22 14:36 41.21397 17.06448 3970 ft 211 kts 262°
2026-04-22 14:36 41.21154 17.04582 3960 ft 204 kts 272°
2026-04-22 14:36 41.21035 17.02688 3949 ft 206 kts 268°
2026-04-22 14:37 41.20747 17.00842 3842 ft 201 kts 261°
2026-04-22 14:37 41.20348 16.99079 3568 ft 199 kts 258°
2026-04-22 14:37 41.19899 16.97342 3275 ft 196 kts 256°
2026-04-22 14:37 41.19437 16.95676 2997 ft 193 kts 255°
2026-04-22 14:38 41.18964 16.94022 2725 ft 190 kts 254°
2026-04-22 14:38 41.18497 16.92397 2465 ft 186 kts 254°
2026-04-22 14:38 41.18044 16.90816 2213 ft 181 kts 254°
2026-04-22 14:38 41.17610 16.89305 2002 ft 170 kts 255°
2026-04-22 14:39 41.17207 16.87894 1764 ft 157 kts 255°
2026-04-22 14:39 41.16832 16.86572 1554 ft 149 kts 255°
2026-04-22 14:39 41.16473 16.85300 1373 ft 149 kts 254°
2026-04-22 14:40 41.15864 16.83157 1054 ft 148 kts 253°
2026-04-22 14:40 41.15377 16.81451 787 ft 147 kts 252°
2026-04-22 14:40 41.15026 16.80216 587 ft 138 kts 251°
2026-04-22 14:40 41.14702 16.79068 405 ft 132 kts 251°
2026-04-22 14:41 41.14381 16.77929 235 ft 131 kts 251°
2026-04-22 14:41 41.14074 16.76810 134 ft 122 kts 247°
2026-04-22 14:41 41.13819 16.75940 153 ft 79 kts 250°
2026-04-22 14:41 41.13680 16.75447 163 ft 49 kts 250°
2026-04-22 14:42 41.13569 16.75057 174 ft 40 kts 250°
2026-04-22 14:42 41.13482 16.74764 183 ft 19 kts 234°
2026-04-22 14:42 41.13383 16.74798 183 ft 18 kts 122°
2026-04-22 14:42 41.13350 16.74941 180 ft 16 kts 76°
2026-04-22 14:43 41.13393 16.75093 175 ft 19 kts 71°
2026-04-22 14:43 41.13443 16.75271 170 ft 21 kts 69°
2026-04-22 14:43 41.13495 16.75449 165 ft 19 kts 69°
2026-04-22 14:43 41.13544 16.75628 160 ft 22 kts 70°
2026-04-22 14:44 41.13600 16.75823 156 ft 23 kts 70°
2026-04-22 14:44 41.13660 16.76029 153 ft 24 kts 68°
2026-04-22 14:44 41.13714 16.76221 149 ft 20 kts 70°
2026-04-22 14:44 41.13767 16.76410 144 ft 22 kts 70°
2026-04-22 14:45 41.13823 16.76610 141 ft 20 kts 66°
2026-04-22 14:45 41.13839 16.76751 137 ft 12 kts 131°
2026-04-22 14:45 41.13773 16.76835 136 ft 14 kts 106°
2026-04-22 14:45 41.13795 16.76969 133 ft 16 kts 70°
2026-04-22 14:46 41.13797 16.77032 131 ft 5 kts 148°
2026-04-22 14:46 41.13764 16.77031 132 ft 3 kts 195°
2026-04-22 14:46 41.13758 16.77029 132 ft 0 kts 195°